Location: *
(42.3442°N, 9.2072°E)
Time: 10:09:09
(UTC+00:00)

Cosmos 1174 - Pass Details

Date: 20 August 2020
Orbit: 363 x 1155 km, 66.1° (Epoch: 22 September)

Event Time Altitude Azimuth Distance (km) Brightness Sun altitude
Exits shadow 03:35:27 15° 254° (WSW) 1,676 5.6 -11.1°
Maximum altitude 03:38:40 34° 314° (NW) 1,144 5.3 -10.6°
Drops below altitude 10° 03:43:40 10° 19° (NNE) 2,430 7.8 -9.8°
Sets 03:46:40 0° 28° (NNE) 3,516 8.9 -9.3°
